Location: Unspecified
(0.0000°N, 0.0000°E)
Time: 21:13:50
(UTC+00:00)

SR - Pass Details

Date: 21 June 2025
Orbit: 572 x 853 km, 66.7° (Epoch: 13 July)

Event Time Altitude Azimuth Distance (km) Brightness Sun altitude
Rises 15:44:31 0° 234° (SW) 3,330 ? 31.2°
Reaches altitude 10° 15:47:54 10° 255° (WSW) 2,433 ? 30.4°
Maximum altitude 15:51:12 16° 291° (WNW) 2,072 ? 29.7°
Drops below altitude 10° 15:54:32 10° 327° (NNW) 2,468 ? 29.0°
Sets 15:58:03 0° 348° (NNW) 3,403 ? 28.2°
